Simultaneous Nadir Overpasses (SNOs) Predictions

Prediction of SNOs between NOAA-19 and TERRA Satellite Orbit:

Table of predicted SNOs for the next 14.0 days since TLE Epoch: 6/8/2012
Index Date (NOAA-19) Time (NOAA-19) NOAA-19 Lat,Lon Date (TERRA) Time (TERRA) TERRA Lat,Lon Distance(km) Time Diff (sec)
1 06/10/2012 18:40:29 69.96,-102.17 06/10/2012 18:41:36 69.87, -99.91 87.03 67
2 06/10/2012 19:31:14 -68.95, 66.54 06/10/2012 19:31:21 -68.94, 66.49 2.54 7
3 06/10/2012 20:22:05 68.41,-125.48 06/10/2012 20:20:54 68.50,-126.42 39.44 71
4 06/12/2012 23:25:02 69.50,-172.65 06/12/2012 23:26:12 69.41,-171.66 40.04 70
5 06/13/2012 00:15:56 -68.94, -4.61 06/13/2012 00:15:49 -68.92, -4.65 2.22 7
6 06/13/2012 01:06:38 67.94, 163.96 06/13/2012 01:05:31 67.98, 161.85 88.11 67
7 06/15/2012 04:09:37 69.14, 116.70 06/15/2012 04:10:49 69.12, 116.83 5.88 72
8 06/15/2012 05:00:38 -68.92, -75.76 06/15/2012 05:00:21 -68.92, -75.79 1.34 17
9 06/17/2012 08:54:17 69.05, 45.66 06/17/2012 08:55:26 69.07, 45.61 2.66 69
10 06/17/2012 09:45:20 -68.91,-146.92 06/17/2012 09:44:57 -68.93,-146.94 1.91 23
11 06/19/2012 13:38:59 69.06, -25.53 06/19/2012 13:40:06 69.08, -25.54 1.95 67
12 06/19/2012 14:30:03 -68.95, 141.85 06/19/2012 14:29:37 -68.95, 141.92 2.88 26
13 06/21/2012 18:23:41 69.07, -96.71 06/21/2012 18:24:50 69.10, -96.70 3.45 69
14 06/21/2012 19:14:45 -68.95, 70.69 06/21/2012 19:14:22 -68.92, 70.70 3.09 23


<
